• En España
  • Lista de países
  • Para 7 días
  • Temperatura del agua
  • Mapa Satelital
  • El tiempo en el mapa
  • Informadores
  • user-avatar
    Iniciar sesión

    Tiempo cada hora Sao Mamede de Infesta

    Hoy, 21 Noviembre, Martes

    Tiempo Temperatura Precipitaciones Viento Presión Humedad
    00:00 +13°C° 0 mm 2 mps 758 mmHg 43%
    01:00 +12°C° 0 mm 3 mps 758 mmHg 44%
    02:00 +11°C° 0 mm 3 mps 758 mmHg 45%
    03:00 +11°C° 0 mm 3 mps 758 mmHg 45%
    04:00 +11°C° 0 mm 3 mps 758 mmHg 45%
    05:00 +11°C° 0 mm 3 mps 758 mmHg 45%
    06:00 +11°C° 0 mm 3 mps 758 mmHg 45%
    07:00 +12°C° 0 mm 3 mps 758 mmHg 45%
    08:00 +13°C° 0 mm 3 mps 758 mmHg 45%
    09:00 +16°C° 0 mm 3 mps 757 mmHg 40%
    10:00 +18°C° 0 mm 3 mps 757 mmHg 36%
    11:00 +21°C° 0 mm 3 mps 757 mmHg 31%
    12:00 +21°C° 0 mm 3 mps 756 mmHg 31%
    13:00 +21°C° 0 mm 3 mps 756 mmHg 32%
    14:00 +22°C° 0 mm 3 mps 755 mmHg 32%
    15:00 +20°C° 0 mm 3 mps 755 mmHg 38%
    16:00 +18°C° 0 mm 3 mps 755 mmHg 45%
    17:00 +16°C° 0 mm 3 mps 755 mmHg 51%
    18:00 +14°C° 0 mm 3 mps 755 mmHg 52%
    19:00 +14°C° 0 mm 3 mps 755 mmHg 52%
    20:00 +13°C° 0 mm 4 mps 755 mmHg 53%
    21:00 +13°C° 0 mm 4 mps 755 mmHg 52%
    22:00 +13°C° 0 mm 4 mps 754 mmHg 52%
    23:00 +13°C° 0 mm 5 mps 754 mmHg 51%

    Mañana, 22 Noviembre, Miércoles

    Tiempo Temperatura Precipitaciones Viento Presión Humedad
    00:00 +12°C° 0 mm 5 mps 753 mmHg 52%
    01:00 +12°C° 0 mm 5 mps 753 mmHg 54%
    02:00 +12°C° 0 mm 5 mps 753 mmHg 55%
    03:00 +11°C° 0 mm 6 mps 752 mmHg 56%
    04:00 +11°C° 0 mm 6 mps 752 mmHg 57%
    05:00 +11°C° 0 mm 6 mps 751 mmHg 58%
    06:00 +13°C° 0 mm 6 mps 751 mmHg 56%
    07:00 +12°C° 0 mm 7 mps 751 mmHg 55%
    08:00 +14°C° 0 mm 7 mps 750 mmHg 53%
    09:00 +16°C° 0,1 mm 7 mps 750 mmHg 50%
    10:00 +17°C° 0,1 mm 8 mps 750 mmHg 47%
    11:00 +20°C° 0,1 mm 8 mps 750 mmHg 44%
    12:00 +18°C° 0,6 mm 8 mps 750 mmHg 52%
    13:00 +18°C° 0,6 mm 9 mps 749 mmHg 60%
    14:00 +17°C° 0,6 mm 9 mps 749 mmHg 67%
    15:00 +16°C° 0,2 mm 9 mps 749 mmHg 71%
    16:00 +16°C° 0,2 mm 8 mps 749 mmHg 74%
    17:00 +15°C° 0,2 mm 8 mps 749 mmHg 77%
    18:00 +15°C° 0,2 mm 7 mps 749 mmHg 77%
    19:00 +15°C° 0,2 mm 7 mps 750 mmHg 77%
    20:00 +15°C° 0,2 mm 6 mps 750 mmHg 77%
    21:00 +15°C° 0,4 mm 6 mps 750 mmHg 79%
    22:00 +15°C° 0,4 mm 5 mps 750 mmHg 82%
    23:00 +15°C° 0,4 mm 5 mps 750 mmHg 84%

    Pasado mañana, 23 Noviembre, Jueves

    Tiempo Temperatura Precipitaciones Viento Presión Humedad
    00:00 +15°C° 0,2 mm 5 mps 750 mmHg 86%
    01:00 +15°C° 0,2 mm 4 mps 750 mmHg 88%
    02:00 +15°C° 0,2 mm 4 mps 750 mmHg 91%
    03:00 +15°C° 0,2 mm 4 mps 750 mmHg 91%
    04:00 +14°C° 0,2 mm 4 mps 751 mmHg 92%
    05:00 +14°C° 0,2 mm 4 mps 751 mmHg 93%
    06:00 +15°C° 0,1 mm 4 mps 751 mmHg 92%
    07:00 +15°C° 0,1 mm 5 mps 751 mmHg 91%
    08:00 +16°C° 0,1 mm 5 mps 752 mmHg 90%
    09:00 +17°C° 0,2 mm 6 mps 752 mmHg 83%
    10:00 +18°C° 0,2 mm 7 mps 752 mmHg 76%
    11:00 +20°C° 0,2 mm 7 mps 752 mmHg 70%
    12:00 +20°C° 0,4 mm 6 mps 752 mmHg 67%
    13:00 +19°C° 0,4 mm 5 mps 752 mmHg 64%
    14:00 +19°C° 0,4 mm 5 mps 752 mmHg 62%
    15:00 +19°C° 0,4 mm 5 mps 752 mmHg 61%
    16:00 +17°C° 0,4 mm 5 mps 751 mmHg 59%
    17:00 +16°C° 0,4 mm 5 mps 751 mmHg 58%
    18:00 +16°C° 0,5 mm 5 mps 751 mmHg 58%
    19:00 +16°C° 0,5 mm 5 mps 751 mmHg 58%
    20:00 +16°C° 0,5 mm 5 mps 751 mmHg 58%
    21:00 +16°C° 0,3 mm 5 mps 751 mmHg 60%
    22:00 +15°C° 0,3 mm 6 mps 751 mmHg 62%
    23:00 +15°C° 0,3 mm 6 mps 750 mmHg 64%

    24 Noviembre, Viernes

    Tiempo Temperatura Precipitaciones Viento Presión Humedad
    00:00 +15°C° 0,7 mm 7 mps 750 mmHg 64%
    01:00 +15°C° 0,7 mm 7 mps 750 mmHg 64%
    02:00 +15°C° 0,7 mm 8 mps 750 mmHg 64%
    03:00 +15°C° 0,9 mm 7 mps 750 mmHg 68%
    04:00 +15°C° 0,9 mm 7 mps 750 mmHg 73%
    05:00 +15°C° 0,9 mm 6 mps 750 mmHg 78%
    06:00 +15°C° 0,3 mm 6 mps 750 mmHg 79%
    07:00 +15°C° 0,3 mm 6 mps 751 mmHg 80%
    08:00 +15°C° 0,3 mm 6 mps 751 mmHg 80%
    09:00 +15°C° 0,3 mm 6 mps 751 mmHg 81%
    10:00 +15°C° 0,3 mm 6 mps 751 mmHg 81%
    11:00 +16°C° 0,3 mm 7 mps 751 mmHg 81%
    12:00 +15°C° 0,6 mm 6 mps 751 mmHg 83%
    13:00 +15°C° 0,6 mm 6 mps 751 mmHg 84%
    14:00 +15°C° 0,6 mm 6 mps 750 mmHg 86%
    15:00 +15°C° 1,4 mm 5 mps 750 mmHg 88%
    16:00 +15°C° 1,4 mm 4 mps 750 mmHg 89%
    17:00 +15°C° 1,4 mm 4 mps 751 mmHg 91%
    18:00 +16°C° 0,7 mm 3 mps 751 mmHg 92%
    19:00 +16°C° 0,7 mm 3 mps 751 mmHg 93%
    20:00 +16°C° 0,7 mm 2 mps 752 mmHg 94%
    21:00 +16°C° 0,8 mm 3 mps 752 mmHg 95%
    22:00 +16°C° 0,8 mm 3 mps 752 mmHg 95%
    23:00 +16°C° 0,8 mm 3 mps 753 mmHg 96%

    25 Noviembre, Sábado

    Tiempo Temperatura Precipitaciones Viento Presión Humedad
    00:00 +15°C° 1,2 mm 4 mps 753 mmHg 94%
    01:00 +14°C° 1,2 mm 4 mps 753 mmHg 93%
    02:00 +14°C° 1,2 mm 5 mps 754 mmHg 91%
    03:00 +13°C° 0,2 mm 4 mps 754 mmHg 89%
    04:00 +13°C° 0,2 mm 4 mps 754 mmHg 86%
    05:00 +13°C° 0,2 mm 3 mps 755 mmHg 84%
    06:00 +13°C° 0 mm 4 mps 756 mmHg 84%
    07:00 +13°C° 0 mm 4 mps 756 mmHg 83%
    08:00 +13°C° 0 mm 5 mps 757 mmHg 82%
    09:00 +14°C° 0 mm 5 mps 757 mmHg 79%
    10:00 +14°C° 0 mm 5 mps 757 mmHg 77%
    11:00 +15°C° 0 mm 5 mps 757 mmHg 74%
    12:00 +15°C° 0,1 mm 5 mps 757 mmHg 73%
    13:00 +15°C° 0,1 mm 5 mps 757 mmHg 72%
    14:00 +15°C° 0,1 mm 5 mps 756 mmHg 71%
    15:00 +14°C° 0,1 mm 4 mps 757 mmHg 72%
    16:00 +14°C° 0,1 mm 4 mps 757 mmHg 74%
    17:00 +14°C° 0,1 mm 4 mps 757 mmHg 76%
    18:00 +14°C° 0,5 mm 4 mps 758 mmHg 78%
    19:00 +14°C° 0,5 mm 3 mps 758 mmHg 80%
    20:00 +13°C° 0,5 mm 3 mps 759 mmHg 81%
    21:00 +13°C° 0,6 mm 3 mps 759 mmHg 83%
    22:00 +13°C° 0,6 mm 3 mps 759 mmHg 84%
    23:00 +13°C° 0,6 mm 3 mps 759 mmHg 85%

    26 Noviembre, Domingo

    Tiempo Temperatura Precipitaciones Viento Presión Humedad
    00:00 +13°C° 0,7 mm 3 mps 758 mmHg 86%
    01:00 +13°C° 0,7 mm 3 mps 758 mmHg 87%
    02:00 +13°C° 0,7 mm 3 mps 758 mmHg 88%
    03:00 +13°C° 0,5 mm 3 mps 758 mmHg 88%
    04:00 +13°C° 0,5 mm 3 mps 759 mmHg 88%
    05:00 +13°C° 0,5 mm 3 mps 759 mmHg 88%
    06:00 +13°C° 0,7 mm 3 mps 759 mmHg 88%
    07:00 +13°C° 0,7 mm 3 mps 759 mmHg 88%
    08:00 +13°C° 0,7 mm 3 mps 760 mmHg 88%
    09:00 +13°C° 0,5 mm 3 mps 760 mmHg 87%
    10:00 +14°C° 0,5 mm 3 mps 760 mmHg 86%
    11:00 +14°C° 0,5 mm 3 mps 760 mmHg 85%
    12:00 +14°C° 0,3 mm 3 mps 759 mmHg 85%
    13:00 +14°C° 0,3 mm 3 mps 759 mmHg 84%
    14:00 +14°C° 0,3 mm 3 mps 759 mmHg 84%
    15:00 +14°C° 0,1 mm 3 mps 759 mmHg 85%
    16:00 +14°C° 0,1 mm 3 mps 759 mmHg 85%
    17:00 +14°C° 0,1 mm 3 mps 759 mmHg 86%
    18:00 +13°C° 0 mm 3 mps 759 mmHg 86%
    19:00 +13°C° 0 mm 3 mps 759 mmHg 86%
    20:00 +13°C° 0 mm 3 mps 759 mmHg 86%
    21:00 +13°C° 0 mm 3 mps 758 mmHg 87%
    22:00 +13°C° 0 mm 3 mps 758 mmHg 87%
    23:00 +12°C° 0 mm 4 mps 758 mmHg 87%
    Mostrar más